STARLINK-1167, 45071

Orbit data source: Space-Track

STARLINK-1167, 45071 is a payload satellite owned by SpaceX/Seattle (US) in LEO that was launched on Wed, 29 Jan 2020 UTC via an FALCON 9 launch vehicle from the Air Force Eastern Test Range (AFETR). Payload-class satellites include a variety of spacecraft equipped with specific instruments for various scientific and technological missions. These include communications satellites like Starlink; space stations such as the ISS; scientific satellites like the Hubble; Earth observation satellites from companies like Planet Labs, Umbra, and HawkEye 360; GPS; miniature CubeSats for education and research; and military/defense satellites.

Loading next visibility...
Identifier
45071, 2020-006AD
Orbit
LEO
Country
Flag of USUS
Related business
Manufacturer
SpaceX/Seattle
Mission
Operational Commercial Communications
Bus & Motor
STARLINK, Unknown motor
Mass
260 kg wet, ~248 kg dry
Launch date (UTC)
2020-01-29 (6 years ago)
Launch vehicle
FALCON 9
Launch site
Air Force Eastern Test Range (AFETR)
Object type
Payload
Rocket body
Debris
Shape & HBR
Box + 1 Pan, 10.1 m
Radar Cross Section
13.562 m², Large (>1 m²)

Expand to show TLE details & history
Last TLE update: 13 hours ago

TLE from 13 hours ago
0 STARLINK-1167
1 45071U 20006AD  25342.62908171  .00000323  00000-0  40592-4 0  9997
2 45071  53.0534 315.4032 0001425  92.8276 267.2876 15.06394401323013
Epoch: 2025-12-08T15:05Z
TLE epoch observation values (Epoch: 2025-12-08T15:05:52.659Z)
Latitude
-0.00004°
Longitude
11.30838°
Altitude
548.155 km
Speed
7.589 km/s
True Right ascension
21h 01m 36s
True Declination
0° 00' 00"
Sunlit
Object was in daylight at epoch
Visualization orbit readout
Latitude
Unknown
Longitude
Unknown
Altitude
Unknown
Speed
Unknown
Apparent Right ascension
Unknown
Apparent Declination
Unknown
Sunlit
N/A
Visualization observer readout
Local Sidereal Time
02:48:06
Azimuth
Unknown
Elevation
Unknown
Doppler factor
Unknown
Orbital elements
Apogee altitude
548.487 km
Perigee altitude
546.513 km
Semi-major axis
6,925.637 km
Eccentricity
0.00014
Inclination
53.0534°
RAAN
315.4032°
Arg. of periapsis
92.8276°
True anomaly
267.27129°
Mean anomaly
267.2876°
Eccentric anomaly
267.27944°
Mean motion
3.76577 °/min
Orbital period
95.6 mins
BSTAR
0.000040592
Loading maneuver chart data...
Computing Atmospheric mass density...

Documentation

Showing up to 5 results
|